This is the latest recevied weather packets stored in our database for station/object AI5BL. If no packets are shown the sender has not sent any weather packets the latest 10 day(s).
| Time | Temp. | Humidity | Pressure | Rain* | Wind** | Luminosity | Snow |
|---|---|---|---|---|---|---|---|
| 1787838122 | 22.78° C | 99% | 1018.7 hPa | 0 mm | - | 38 W/m² | - |
| 1787837817 | 22.78° C | 99% | 1018.8 hPa | 0 mm | - | 36 W/m² | - |
| 1787837511 | 22.78° C | 99% | 1018.6 hPa | 0 mm | - | 32 W/m² | - |
| 1787837205 | 22.78° C | 99% | 1018.7 hPa | 0 mm | - | 29 W/m² | - |
| 1787836904 | 22.78° C | 99% | 1018.6 hPa | 1.78 mm | - | 24 W/m² | - |
| 1787836600 | 22.78° C | 99% | 1018.6 hPa | 1.78 mm | - | 19 W/m² | - |
| 1787836299 | 22.78° C | 99% | 1018.7 hPa | 0 mm | - | 20 W/m² | - |
| 1787835995 | 22.78° C | 99% | 1018.6 hPa | 0 mm | - | 16 W/m² | - |
| 1787835691 | 22.78° C | 99% | 1018.6 hPa | 1.27 mm | - | 14 W/m² | - |
| 1787835386 | 22.78° C | 99% | 1018.4 hPa | 1.27 mm | - | 13 W/m² | - |
| 1787835081 | 22.78° C | 99% | 1018.5 hPa | 0 mm | - | 11 W/m² | - |
| 1787834779 | 22.78° C | 99% | 1018.6 hPa | 0 mm | - | 10 W/m² | - |
| 1787834475 | 22.78° C | 99% | 1018.6 hPa | 1.78 mm | - | 8 W/m² | - |
| 1787834170 | 22.78° C | 99% | 1018.6 hPa | 1.78 mm | - | 7 W/m² | - |
| 1787833866 | 22.78° C | 99% | 1018.5 hPa | 0 mm | - | 6 W/m² | - |
| 1787833561 | 22.22° C | 99% | 1018.5 hPa | 1.27 mm | - | 5 W/m² | - |
| 1787833256 | 22.22° C | 99% | 1018.5 hPa | 0 mm | - | 4 W/m² | - |
| 1787832952 | 22.78° C | 99% | 1018.4 hPa | 0 mm | - | 4 W/m² | - |
| 1787832648 | 22.78° C | 99% | 1018.3 hPa | 0 mm | - | 3 W/m² | - |
| 1787832346 | 22.78° C | 99% | 1018.3 hPa | 0 mm | - | 2 W/m² | - |
| 1787832047 | 22.78° C | 99% | 1018.1 hPa | 0 mm | - | 2 W/m² | - |
| 1787831746 | 22.78° C | 99% | 1017.8 hPa | 0 mm | - | 2 W/m² | - |
| 1787831451 | 22.78° C | 99% | 1017.9 hPa | 0 mm | - | 1 W/m² | - |
| 1787831143 | 22.78° C | 99% | 1017.6 hPa | 0 mm | - | 1 W/m² | - |
| 1787830840 | 22.78° C | 99% | 1017.5 hPa | 1.78 mm | - | 1 W/m² | - |
* Rain latest hour (hover to see other rain measurements)
** Current wind speed in m/s (hover to see current wind gust speed)